ELY2521 LLBG-LKPR

Flight info

Callsign ELY2521
Flight time N/A
Altitude 34000
Route SUVAS N128 TEZAK L324 SAFTA DCT TOMBI UA16 AYT UQ26 TUDBU Q26 ETUBA DCT VAMON DCT NORAH DCT LALES DCT TUMKA DCT VLM
Aircraft B738/M-SDE2E3FGHIRWXY/LB1

Departure

Time 2026-05-01 12:55
Airport Ben Gurion International Airport (LLBG)

Arrival

Time N/A
Airport Václav Havel Airport Prague (LKPR)
Time Latitude Longitude Altitude Speed Heading
2026-05-01 12:25 32.00179 34.87336 119 ft 0 kts 56°
2026-05-01 12:39 32.00177 34.87333 116 ft 3 kts 56°
2026-05-01 12:39 32.00167 34.87312 114 ft 3 kts 68°
2026-05-01 12:39 32.00158 34.87293 117 ft 3 kts 33°
2026-05-01 12:40 32.00143 34.87283 116 ft 3 kts 11°
2026-05-01 12:40 32.00125 34.87283 115 ft 3 kts 338°
2026-05-01 12:40 32.00116 34.87288 116 ft 2 kts 333°
2026-05-01 12:40 32.00115 34.87289 116 ft 2 kts 333°
2026-05-01 12:41 32.00109 34.87292 117 ft 3 kts 334°
2026-05-01 12:41 32.00090 34.87302 115 ft 3 kts 336°
2026-05-01 12:41 32.00071 34.87312 117 ft 3 kts 334°
2026-05-01 12:42 32.00055 34.87321 117 ft 3 kts 329°
2026-05-01 12:42 32.00040 34.87337 115 ft 3 kts 305°
2026-05-01 12:42 32.00030 34.87354 115 ft 3 kts 302°
2026-05-01 12:42 32.00021 34.87371 114 ft 2 kts 301°
2026-05-01 12:43 32.00014 34.87393 117 ft 3 kts 276°
2026-05-01 12:43 32.00010 34.87415 118 ft 3 kts 301°
2026-05-01 12:43 32.00002 34.87431 114 ft 3 kts 302°
2026-05-01 12:44 31.99996 34.87442 114 ft 3 kts 302°
2026-05-01 12:44 31.99973 34.87484 114 ft 3 kts 301°
2026-05-01 12:45 31.99952 34.87526 116 ft 10 kts 296°
2026-05-01 12:45 31.99947 34.87546 115 ft 13 kts 254°
2026-05-01 12:45 31.99957 34.87561 115 ft 9 kts 211°
2026-05-01 12:46 31.99974 34.87574 115 ft 9 kts 219°
2026-05-01 12:46 31.99990 34.87590 118 ft 9 kts 215°
2026-05-01 12:46 31.99996 34.87595 117 ft 41 kts 212°
2026-05-01 12:48 31.99996 34.87594 117 ft 1 kts 217°
2026-05-01 12:48 31.99978 34.87581 117 ft 5 kts 212°
2026-05-01 12:48 31.99956 34.87544 117 ft 6 kts 257°
2026-05-01 12:49 31.99977 34.87502 117 ft 7 kts 335°
2026-05-01 12:49 32.00025 34.87517 118 ft 8 kts 31°
2026-05-01 12:49 32.00081 34.87558 119 ft 11 kts 31°
2026-05-01 12:49 32.00163 34.87616 118 ft 16 kts 31°
2026-05-01 12:50 32.00270 34.87693 118 ft 20 kts 31°
2026-05-01 12:50 32.00400 34.87785 117 ft 24 kts 31°
2026-05-01 12:50 32.00524 34.87873 118 ft 16 kts 31°
2026-05-01 12:50 32.00620 34.87941 118 ft 17 kts 32°
2026-05-01 12:51 32.00722 34.88015 115 ft 17 kts 32°
2026-05-01 12:51 32.00832 34.88095 118 ft 20 kts 31°
2026-05-01 12:51 32.01077 34.88272 119 ft 16 kts 31°
2026-05-01 12:52 32.01171 34.88340 119 ft 16 kts 32°
2026-05-01 12:52 32.01361 34.88521 116 ft 21 kts 49°
2026-05-01 12:52 32.01447 34.88674 119 ft 24 kts 65°
2026-05-01 12:53 32.01533 34.89086 116 ft 13 kts 79°
2026-05-01 12:53 32.01536 34.89106 117 ft 2 kts 79°
2026-05-01 12:53 32.01542 34.89128 119 ft 4 kts 66°
2026-05-01 12:54 32.01573 34.89162 118 ft 9 kts 23°
2026-05-01 12:54 32.01733 34.89121 117 ft 11 kts 313°
2026-05-01 12:54 32.01743 34.89088 117 ft 2 kts 263°
2026-05-01 12:55 32.01619 34.88267 120 ft 113 kts 260°
2026-05-01 12:55 32.01458 34.87147 142 ft 161 kts 262°
2026-05-01 12:55 32.01262 34.85816 771 ft 165 kts 263°
2026-05-01 12:56 32.01019 34.84408 1319 ft 184 kts 258°
2026-05-01 12:56 32.00730 34.82959 2170 ft 178 kts 257°
2026-05-01 12:56 32.00425 34.81475 2770 ft 195 kts 257°
2026-05-01 12:56 32.00069 34.79867 3116 ft 213 kts 256°
2026-05-01 12:57 31.99673 34.78104 3463 ft 226 kts 256°
2026-05-01 12:57 31.99270 34.76181 3881 ft 241 kts 260°
2026-05-01 12:57 31.99346 34.74158 4294 ft 255 kts 285°
2026-05-01 12:58 31.99920 34.72150 5040 ft 259 kts 290°
2026-05-01 12:58 32.00567 34.70174 5825 ft 261 kts 290°
2026-05-01 12:58 32.01217 34.68165 6526 ft 264 kts 290°
2026-05-01 12:59 32.02596 34.64124 7880 ft 271 kts 304°
2026-05-01 12:59 32.04014 34.62655 8586 ft 275 kts 324°
2026-05-01 12:59 32.07261 34.60158 9952 ft 282 kts 324°
2026-05-01 13:00 32.10697 34.57502 10537 ft 315 kts 324°
2026-05-01 13:00 32.12582 34.56029 10691 ft 335 kts 324°
2026-05-01 13:01 32.16583 34.52894 11584 ft 350 kts 323°
2026-05-01 13:01 32.18612 34.51300 12269 ft 351 kts 323°
2026-05-01 13:01 32.22703 34.48076 13512 ft 356 kts 323°
2026-05-01 13:02 32.24769 34.46444 14089 ft 359 kts 323°
2026-05-01 13:07 32.75385 34.20583 23825 ft 419 kts 349°
2026-05-01 13:07 32.78296 34.20258 24157 ft 421 kts 349°
2026-05-01 13:07 32.81212 34.19928 24487 ft 422 kts 349°
2026-05-01 13:08 32.84141 34.19593 24806 ft 423 kts 349°
2026-05-01 13:08 32.87077 34.19257 25132 ft 425 kts 349°
2026-05-01 13:08 32.90026 34.18919 25440 ft 426 kts 349°
2026-05-01 13:08 32.92987 34.18579 25758 ft 428 kts 349°
2026-05-01 13:09 32.95952 34.18238 26057 ft 429 kts 349°
2026-05-01 13:09 32.98932 34.17896 26356 ft 431 kts 348°
2026-05-01 13:09 33.01919 34.17553 26648 ft 432 kts 348°
2026-05-01 13:09 33.04915 34.17208 26938 ft 433 kts 348°
2026-05-01 13:10 33.07924 34.16862 27215 ft 435 kts 348°
2026-05-01 13:10 33.10939 34.16515 27484 ft 436 kts 348°
2026-05-01 13:10 33.13964 34.16166 27765 ft 437 kts 348°
2026-05-01 13:10 33.16999 34.15817 28039 ft 439 kts 348°
2026-05-01 13:11 33.20045 34.15465 28297 ft 440 kts 348°
2026-05-01 13:11 33.23095 34.15113 28561 ft 441 kts 348°
2026-05-01 13:11 33.26143 34.14762 28950 ft 439 kts 348°
2026-05-01 13:11 33.29175 34.14414 29407 ft 436 kts 348°
2026-05-01 13:12 33.32185 34.14067 29804 ft 434 kts 348°
2026-05-01 13:12 33.35190 34.13720 30118 ft 434 kts 348°
2026-05-01 13:12 33.38192 34.13371 30388 ft 433 kts 348°
2026-05-01 13:12 33.41191 34.13023 30670 ft 432 kts 348°
2026-05-01 13:13 33.44180 34.12676 30947 ft 432 kts 348°
2026-05-01 13:13 33.47167 34.12329 31204 ft 431 kts 347°
2026-05-01 13:13 33.50156 34.11981 31447 ft 431 kts 347°
2026-05-01 13:13 33.52133 34.11751 31630 ft 431 kts 347°
2026-05-01 13:14 33.55110 34.11405 31900 ft 430 kts 347°
2026-05-01 13:14 33.58084 34.11059 32135 ft 430 kts 347°
2026-05-01 13:14 33.61060 34.10712 32372 ft 429 kts 347°
2026-05-01 13:14 33.64030 34.10366 32628 ft 429 kts 347°
2026-05-01 13:15 33.66993 34.10020 32877 ft 428 kts 347°
2026-05-01 13:15 33.69957 34.09674 33098 ft 428 kts 347°
2026-05-01 13:15 33.72922 34.09327 33307 ft 428 kts 347°
2026-05-01 13:15 33.75881 34.08981 33553 ft 427 kts 347°
2026-05-01 13:16 33.78852 34.08714 33773 ft 431 kts 353°
2026-05-01 13:16 33.81875 34.08963 33928 ft 440 kts
2026-05-01 13:16 33.84900 34.09723 33932 ft 450 kts
2026-05-01 13:17 33.96655 34.15288 33952 ft 454 kts 14°
2026-05-01 13:18 34.05439 34.19495 33944 ft 452 kts 13°
2026-05-01 13:18 34.11289 34.22262 33938 ft 451 kts 13°
2026-05-01 13:19 34.17129 34.25027 33946 ft 451 kts 13°
2026-05-01 13:20 34.25873 34.29178 33948 ft 450 kts 13°
2026-05-01 13:20 34.31690 34.31946 33934 ft 449 kts 13°
2026-05-01 13:21 34.40399 34.36095 33936 ft 447 kts 12°
2026-05-01 13:21 34.43353 34.37102 33923 ft 435 kts
2026-05-01 13:21 34.46318 34.37445 33941 ft 424 kts 352°
2026-05-01 13:22 34.49226 34.37228 33930 ft 413 kts 342°
2026-05-01 13:22 34.52033 34.36551 33942 ft 410 kts 341°
2026-05-01 13:22 34.57619 34.35103 33934 ft 411 kts 341°
2026-05-01 13:23 34.63219 34.33688 33928 ft 412 kts 341°
2026-05-01 13:23 34.68841 34.32299 33927 ft 413 kts 341°
2026-05-01 13:24 34.74473 34.30913 33928 ft 413 kts 341°
2026-05-01 13:25 34.82937 34.28825 33924 ft 414 kts 341°
2026-05-01 13:25 34.88584 34.27429 33917 ft 414 kts 341°
2026-05-01 13:26 34.94236 34.26029 33915 ft 415 kts 341°
2026-05-01 13:26 34.99893 34.24626 33914 ft 415 kts 341°
2026-05-01 13:27 35.05545 34.23223 33911 ft 415 kts 341°
2026-05-01 13:27 35.14023 34.21114 33914 ft 414 kts 341°
2026-05-01 13:28 35.22500 34.19000 33909 ft 414 kts 341°
2026-05-01 13:29 35.33795 34.16177 33907 ft 414 kts 341°
2026-05-01 13:31 35.50748 34.11924 33912 ft 415 kts 341°
2026-05-01 13:32 35.64915 34.08357 33902 ft 416 kts 341°
2026-05-01 13:33 35.79114 34.04767 33900 ft 417 kts 341°
2026-05-01 13:34 35.90465 34.01748 33887 ft 413 kts 335°
2026-05-01 13:35 35.95548 33.98732 33904 ft 402 kts 323°
2026-05-01 13:35 35.97924 33.96908 33887 ft 403 kts 322°
2026-05-01 13:36 36.05073 33.91413 33889 ft 404 kts 323°
2026-05-01 13:36 36.12265 33.85940 33880 ft 405 kts 323°
2026-05-01 13:37 36.17075 33.82282 33881 ft 406 kts 323°
2026-05-01 13:37 36.21893 33.78612 33889 ft 407 kts 322°
2026-05-01 13:38 36.29124 33.73099 33902 ft 407 kts 323°
2026-05-01 13:39 36.33947 33.69429 33895 ft 406 kts 322°
2026-05-01 13:39 36.38763 33.65757 33885 ft 406 kts 322°
2026-05-01 13:40 36.43560 33.62096 33893 ft 404 kts 322°
2026-05-01 13:40 36.48347 33.58432 33891 ft 404 kts 322°
2026-05-01 13:41 36.53138 33.54760 33892 ft 404 kts 322°
2026-05-01 13:41 36.57928 33.51085 33884 ft 405 kts 322°
2026-05-01 13:42 36.62717 33.47405 33889 ft 405 kts 322°
2026-05-01 13:42 36.67510 33.43716 33882 ft 405 kts 322°
2026-05-01 13:43 36.72308 33.40018 33880 ft 405 kts 322°
2026-05-01 13:43 36.77101 33.36318 33883 ft 405 kts 322°
2026-05-01 13:44 36.81895 33.32612 33875 ft 406 kts 321°
2026-05-01 13:44 36.86559 33.28701 33878 ft 400 kts 314°
2026-05-01 13:45 36.90386 33.23764 33884 ft 394 kts 307°
2026-05-01 13:45 36.94072 33.18692 33880 ft 394 kts 307°
2026-05-01 13:46 36.97768 33.13628 33872 ft 394 kts 307°
2026-05-01 13:46 37.01467 33.08573 33884 ft 394 kts 307°
2026-05-01 13:47 37.05167 33.03519 33877 ft 394 kts 307°
2026-05-01 13:47 37.08862 32.98465 33886 ft 393 kts 307°
2026-05-01 13:48 37.12557 32.93403 33882 ft 394 kts 307°
2026-05-01 13:48 37.16251 32.88335 33879 ft 394 kts 307°
2026-05-01 13:49 37.19945 32.83256 33877 ft 394 kts 307°
2026-05-01 13:49 37.23639 32.78172 33889 ft 394 kts 307°
2026-05-01 13:50 37.27333 32.73080 33880 ft 394 kts 307°
2026-05-01 13:50 37.31018 32.67992 33885 ft 393 kts 307°
2026-05-01 13:51 37.34693 32.62909 33889 ft 392 kts 307°
2026-05-01 13:51 37.38358 32.57832 33883 ft 392 kts 307°
2026-05-01 13:52 37.42012 32.52763 33884 ft 391 kts 307°
2026-05-01 13:52 37.45663 32.47690 33896 ft 391 kts 306°
2026-05-01 13:53 37.49307 32.42617 33888 ft 391 kts 306°
2026-05-01 13:53 37.54771 32.34998 33896 ft 391 kts 306°
2026-05-01 13:54 37.57796 32.30770 33906 ft 391 kts 306°
2026-05-01 13:54 37.61441 32.25671 33898 ft 392 kts 306°
2026-05-01 13:55 37.65086 32.20563 33903 ft 392 kts 306°
2026-05-01 13:55 37.68739 32.15442 33903 ft 393 kts 306°
2026-05-01 13:56 37.72398 32.10306 33916 ft 394 kts 306°
2026-05-01 13:56 37.76063 32.05150 33912 ft 395 kts 306°
2026-05-01 13:57 37.79741 31.99969 33916 ft 396 kts 306°
2026-05-01 13:57 37.83427 31.94768 33916 ft 397 kts 306°
2026-05-01 13:58 37.87116 31.89553 33926 ft 398 kts 306°
2026-05-01 13:58 37.90813 31.84321 33924 ft 399 kts 306°
2026-05-01 13:59 37.94504 31.79087 33933 ft 398 kts 306°
2026-05-01 13:59 37.98189 31.73853 33931 ft 397 kts 306°
2026-05-01 14:00 38.01862 31.68627 33948 ft 397 kts 306°
2026-05-01 14:00 38.05530 31.63399 33958 ft 397 kts 306°
2026-05-01 14:01 38.09197 31.58166 33928 ft 397 kts 306°
2026-05-01 14:01 38.12869 31.52912 33942 ft 398 kts 306°
2026-05-01 14:02 38.16541 31.47650 33961 ft 398 kts 306°
2026-05-01 14:02 38.20209 31.42384 33959 ft 397 kts 306°
2026-05-01 14:03 38.23860 31.37135 33965 ft 396 kts 306°
2026-05-01 14:03 38.27500 31.31890 33965 ft 395 kts 306°
2026-05-01 14:04 38.31141 31.26636 33972 ft 396 kts 306°
2026-05-01 14:04 38.34788 31.21363 33974 ft 397 kts 306°
2026-05-01 14:05 38.38436 31.16082 33983 ft 397 kts 306°
2026-05-01 14:05 38.42089 31.10784 33998 ft 398 kts 306°
2026-05-01 14:06 38.45764 31.05493 33996 ft 400 kts 309°